EN

Hourly Weather Lugovoe

Today, 24 November, Tuesday

Time Temperature Precipitation Wind Pressure Humidity
00:00 +2°C° 0 mm 3 mps 741 mmHg 90%
01:00 +2°C° 0 mm 3 mps 742 mmHg 90%
02:00 0°C° 0 mm 4 mps 742 mmHg 89%
03:00 0°C° 0.1 mm 4 mps 742 mmHg 91%
04:00 0°C° 0.1 mm 4 mps 742 mmHg 92%
05:00 0°C° 0.1 mm 4 mps 741 mmHg 94%
06:00 +1°C° 0.4 mm 4 mps 742 mmHg 90%
07:00 +1°C° 0.4 mm 4 mps 742 mmHg 85%
08:00 +1°C° 0.4 mm 5 mps 743 mmHg 81%
09:00 +2°C° 0 mm 5 mps 743 mmHg 80%
10:00 +2°C° 0 mm 5 mps 744 mmHg 78%
11:00 +2°C° 0 mm 5 mps 744 mmHg 76%
12:00 +3°C° 0 mm 4 mps 744 mmHg 75%
13:00 +3°C° 0 mm 4 mps 745 mmHg 74%
14:00 +3°C° 0 mm 4 mps 745 mmHg 73%
15:00 +1°C° 0 mm 4 mps 745 mmHg 77%
16:00 +2°C° 0 mm 3 mps 745 mmHg 80%
17:00 +1°C° 0 mm 3 mps 745 mmHg 83%
18:00 +1°C° 0 mm 3 mps 746 mmHg 87%
19:00 +1°C° 0 mm 3 mps 746 mmHg 90%
20:00 +2°C° 0 mm 2 mps 746 mmHg 93%
21:00 +2°C° 0 mm 2 mps 746 mmHg 94%
22:00 +2°C° 0 mm 2 mps 746 mmHg 96%
23:00 +2°C° 0 mm 2 mps 746 mmHg 97%

Tomorrow, 25 November, Wednesday

Time Temperature Precipitation Wind Pressure Humidity
00:00 +2°C° 0 mm 2 mps 746 mmHg 97%
01:00 +2°C° 0 mm 2 mps 747 mmHg 97%
02:00 +3°C° 0 mm 1 mps 747 mmHg 97%
03:00 +3°C° 0.2 mm 1 mps 746 mmHg 97%
04:00 +3°C° 0.2 mm 1 mps 746 mmHg 97%
05:00 +3°C° 0.2 mm 1 mps 746 mmHg 98%
06:00 +4°C° 0.3 mm 1 mps 746 mmHg 98%
07:00 +4°C° 0.3 mm 1 mps 746 mmHg 98%
08:00 +4°C° 0.3 mm 1 mps 747 mmHg 98%
09:00 +4°C° 0.1 mm 1 mps 746 mmHg 97%
10:00 +5°C° 0.1 mm 1 mps 746 mmHg 96%
11:00 +5°C° 0.1 mm 1 mps 746 mmHg 96%
12:00 +5°C° 0.1 mm 1 mps 747 mmHg 96%
13:00 +5°C° 0.1 mm 1 mps 747 mmHg 96%
14:00 +5°C° 0.1 mm 1 mps 747 mmHg 96%
15:00 +6°C° 0.3 mm 1 mps 747 mmHg 97%
16:00 +6°C° 0.3 mm 1 mps 747 mmHg 98%
17:00 +6°C° 0.3 mm 1 mps 747 mmHg 98%
18:00 +5°C° 0.2 mm 2 mps 747 mmHg 98%
19:00 +6°C° 0.2 mm 2 mps 747 mmHg 97%
20:00 +6°C° 0.2 mm 2 mps 747 mmHg 97%
21:00 +6°C° 0 mm 2 mps 747 mmHg 95%
22:00 +7°C° 0 mm 3 mps 747 mmHg 94%
23:00 +7°C° 0 mm 3 mps 747 mmHg 93%

Day after tomorrow, 26 November, Thursday

Time Temperature Precipitation Wind Pressure Humidity
00:00 +7°C° 0 mm 3 mps 747 mmHg 92%
01:00 +7°C° 0 mm 3 mps 747 mmHg 92%
02:00 +7°C° 0 mm 3 mps 747 mmHg 92%
03:00 +5°C° 0 mm 3 mps 747 mmHg 93%
04:00 +5°C° 0 mm 3 mps 746 mmHg 94%
05:00 +5°C° 0 mm 3 mps 746 mmHg 94%
06:00 +5°C° 0 mm 3 mps 746 mmHg 93%
07:00 +5°C° 0 mm 3 mps 746 mmHg 91%
08:00 +5°C° 0 mm 3 mps 746 mmHg 90%
09:00 +5°C° 0 mm 3 mps 746 mmHg 88%
10:00 +5°C° 0 mm 3 mps 745 mmHg 87%
11:00 +5°C° 0 mm 4 mps 745 mmHg 86%
12:00 +4°C° 0 mm 4 mps 745 mmHg 85%
13:00 +4°C° 0 mm 4 mps 744 mmHg 84%
14:00 +3°C° 0 mm 4 mps 744 mmHg 83%
15:00 +3°C° 0 mm 4 mps 743 mmHg 82%
16:00 +3°C° 0 mm 4 mps 743 mmHg 82%
17:00 +2°C° 0 mm 3 mps 742 mmHg 81%
18:00 +1°C° 0.1 mm 4 mps 742 mmHg 83%
19:00 +1°C° 0.1 mm 4 mps 742 mmHg 84%
20:00 +1°C° 0.1 mm 4 mps 742 mmHg 86%
21:00 +1°C° 0.5 mm 4 mps 742 mmHg 88%
22:00 +2°C° 0.5 mm 3 mps 741 mmHg 90%
23:00 +2°C° 0.5 mm 3 mps 741 mmHg 93%

27 November, Friday

Time Temperature Precipitation Wind Pressure Humidity
00:00 +2°C° 0.1 mm 3 mps 741 mmHg 93%
01:00 +3°C° 0.1 mm 2 mps 741 mmHg 94%
02:00 +3°C° 0.1 mm 2 mps 741 mmHg 94%
03:00 +4°C° 0 mm 2 mps 741 mmHg 95%
04:00 +4°C° 0 mm 2 mps 741 mmHg 95%
05:00 +4°C° 0 mm 2 mps 741 mmHg 96%
06:00 +4°C° 0 mm 2 mps 741 mmHg 96%
07:00 +4°C° 0 mm 2 mps 741 mmHg 95%
08:00 +4°C° 0 mm 2 mps 741 mmHg 95%
09:00 +4°C° 0 mm 2 mps 741 mmHg 93%
10:00 +4°C° 0 mm 2 mps 741 mmHg 91%
11:00 +4°C° 0 mm 2 mps 741 mmHg 89%
12:00 +4°C° 0.1 mm 2 mps 741 mmHg 86%
13:00 +4°C° 0.1 mm 2 mps 742 mmHg 84%
14:00 +4°C° 0.1 mm 2 mps 742 mmHg 82%
15:00 +3°C° 0 mm 2 mps 742 mmHg 84%
16:00 +2°C° 0 mm 2 mps 742 mmHg 85%
17:00 +2°C° 0 mm 2 mps 743 mmHg 87%
18:00 +2°C° 0 mm 2 mps 743 mmHg 88%
19:00 +1°C° 0 mm 2 mps 744 mmHg 88%
20:00 +1°C° 0 mm 2 mps 744 mmHg 89%
21:00 +1°C° 0 mm 2 mps 745 mmHg 89%
22:00 +1°C° 0 mm 2 mps 745 mmHg 90%
23:00 +1°C° 0 mm 2 mps 746 mmHg 90%

28 November, Saturday

Time Temperature Precipitation Wind Pressure Humidity
00:00 +1°C° 0 mm 2 mps 746 mmHg 91%
01:00 +1°C° 0 mm 2 mps 747 mmHg 91%
02:00 -1°C° 0 mm 2 mps 747 mmHg 91%
03:00 -1°C° 0 mm 2 mps 748 mmHg 92%
04:00 -1°C° 0 mm 2 mps 748 mmHg 92%
05:00 -1°C° 0 mm 2 mps 748 mmHg 92%
06:00 +1°C° 0 mm 2 mps 749 mmHg 93%
07:00 +1°C° 0 mm 2 mps 749 mmHg 93%
08:00 +1°C° 0 mm 2 mps 750 mmHg 94%
09:00 +1°C° 0 mm 2 mps 750 mmHg 93%
10:00 +1°C° 0 mm 2 mps 751 mmHg 93%
11:00 0°C° 0 mm 3 mps 751 mmHg 92%
12:00 0°C° 0 mm 3 mps 751 mmHg 90%
13:00 +1°C° 0 mm 3 mps 752 mmHg 88%
14:00 +1°C° 0 mm 3 mps 752 mmHg 86%
15:00 0°C° 0 mm 3 mps 752 mmHg 87%
16:00 0°C° 0 mm 3 mps 753 mmHg 88%
17:00 0°C° 0 mm 3 mps 753 mmHg 89%
18:00 0°C° 0 mm 3 mps 753 mmHg 90%
19:00 0°C° 0 mm 3 mps 754 mmHg 92%
20:00 0°C° 0 mm 3 mps 754 mmHg 94%
21:00 0°C° 0 mm 3 mps 754 mmHg 93%
22:00 -1°C° 0 mm 3 mps 755 mmHg 92%
23:00 -1°C° 0 mm 3 mps 755 mmHg 91%

29 November, Sunday

Time Temperature Precipitation Wind Pressure Humidity
00:00 -1°C° 0 mm 3 mps 755 mmHg 92%
01:00 -1°C° 0 mm 3 mps 755 mmHg 92%
02:00 -1°C° 0 mm 3 mps 755 mmHg 93%
03:00 -2°C° 0 mm 3 mps 756 mmHg 92%
04:00 -2°C° 0 mm 3 mps 756 mmHg 91%
05:00 -2°C° 0 mm 3 mps 756 mmHg 91%
06:00 -2°C° 0 mm 3 mps 756 mmHg 89%
07:00 -2°C° 0 mm 3 mps 756 mmHg 88%
08:00 -2°C° 0 mm 3 mps 756 mmHg 87%
09:00 -2°C° 0 mm 3 mps 757 mmHg 84%
10:00 -1°C° 0 mm 3 mps 757 mmHg 81%
11:00 -1°C° 0 mm 3 mps 757 mmHg 78%
12:00 -1°C° 0 mm 3 mps 757 mmHg 78%
13:00 -1°C° 0 mm 3 mps 757 mmHg 78%
14:00 -1°C° 0 mm 3 mps 757 mmHg 78%
15:00 -1°C° 0 mm 3 mps 757 mmHg 80%
16:00 -1°C° 0 mm 3 mps 757 mmHg 81%
17:00 -2°C° 0 mm 3 mps 758 mmHg 83%
18:00 -2°C° 0 mm 3 mps 758 mmHg 85%
19:00 -2°C° 0 mm 3 mps 758 mmHg 87%
20:00 -2°C° 0 mm 3 mps 758 mmHg 89%
21:00 -2°C° 0 mm 3 mps 759 mmHg 89%
22:00 -2°C° 0 mm 3 mps 759 mmHg 89%
23:00 -2°C° 0 mm 3 mps 759 mmHg 89%
Show more